Location: Oshawa
(43.9000°N, 78.8670°W)
Time: 07:35:15
(UTC-04:00)

Thor Agena Rocket - Visible Passes

Search period start: 02 September 2014 00:00
Search period end: 12 September 2014 00:00
Orbit: 762 x 809 km, 99.0° (Epoch: 01 September)

Date Brightness Start Highest point End Pass type
(mag) Time Alt. Az. Time Alt. Az. Time Alt. Az.
02 Sep 6.1 00:48:24 14° NE 00:48:24 14° NE 00:50:19 10° NNE visible
02 Sep 5.3 02:29:02 29° NNW 02:29:02 29° NNW 02:31:30 10° NNW visible
03 Sep 5.4 01:57:52 28° N 01:57:52 28° N 02:00:30 10° N visible
03 Sep 5.9 03:38:30 12° NW 03:38:30 12° NW 03:39:06 10° NW visible
04 Sep 5.7 01:26:43 22° NNE 01:26:43 22° NNE 01:29:11 10° N visible
04 Sep 5.6 03:07:21 19° NW 03:07:21 19° NW 03:08:54 10° NNW visible
05 Sep 6.1 00:55:33 15° NE 00:55:33 15° NE 00:57:22 10° NNE visible
05 Sep 5.5 02:36:11 24° NNW 02:36:11 24° NNW 02:38:15 10° NNW visible
06 Sep 5.5 02:05:01 25° N 02:05:01 25° N 02:07:17 10° N visible
07 Sep 5.8 01:33:52 21° NNE 01:33:52 21° NNE 01:36:02 10° N visible
07 Sep 5.8 03:14:30 16° NW 03:14:30 16° NW 03:15:33 10° NNW visible
08 Sep 6.1 01:02:42 15° NE 01:02:42 15° NE 01:04:22 10° NNE visible
08 Sep 5.7 02:43:20 20° NNW 02:43:20 20° NNW 02:44:58 10° NNW visible
09 Sep 5.7 02:12:11 22° N 02:12:11 22° N 02:14:04 10° N visible
10 Sep 5.9 01:41:02 20° NNE 01:41:02 20° NNE 01:42:52 10° N visible
10 Sep 6.0 03:21:40 13° NW 03:21:40 13° NW 03:22:11 10° NNW visible
11 Sep 6.2 01:09:52 15° NNE 01:09:52 15° NNE 01:11:18 10° NNE visible
11 Sep 5.9 02:50:30 17° NNW 02:50:30 17° NNW 02:51:40 10° NNW visible
